Brussels, Belgium

10:53 PM CEST on September 19, 2017 (GMT +0200)
Brussels Airport

Weather History for EBBR - September, 2013

Change the Weather History Date:

Tuesday, September 17, 2013

  Actual Average Record
Temperature  
Mean Temperature 50 °F -  
Max Temperature 57 °F 60 °F 78 °F (2003)
Min Temperature 44 °F 48 °F 41 °F (1996)
Degree Days  
Heating Degree Days 14    
Moisture  
Dew Point 44 °F    
Average Humidity 81    
Maximum Humidity 94    
Minimum Humidity 7    
Precipitation  
Precipitation 0.12 in - - ()
Sea Level Pressure  
Sea Level Pressure 29.58 in    
Wind  
Wind Speed 10 mph ()    
Max Wind Speed 20 mph    
Max Gust Speed -    
Visibility 6.9 miles    
Events Rain    
Averages and records for this station are not official NWS values.
T = Trace of Precipitation, MM = Missing Value Source: Averaged Metar Reports

Daily Weather History Graph

Daily Weather History Graph

Search for Another Location

Airport or City:

Trip Planner

Search our weather history database for the weather conditions in past years. The results will help you decide how hot, cold, wet, or windy it might be!

Date:

Astronomy

Sep. 17, 2013 Rise Set
Actual Time 7:20 AM CEST 7:51 PM CEST
Civil Twilight 6:47 AM CEST 8:24 PM CEST
Nautical Twilight 6:07 AM CEST 9:03 PM CEST
Astronomical Twilight 5:26 AM CEST 9:44 PM CEST
Moon 6:35 PM CEST (9/17) 4:45 AM CEST (9/17)
Length of Visible Light 13h 37m
Length of Day
12h 30m
Waxing Gibbous, 94% of the Moon is Illuminated
Sep 17
Waxing Gibbous
Sep 19
Full
Sep 27
Last Quarter
Oct 5
New
Oct 12
First Quarter

Hourly Weather History & Observations

Time (CEST) Temp. Windchill Dew Point Humidity Pressure Visibility Wind Dir Wind Speed Gust Speed Precip Events Conditions
12:20 AM 46.4 °F 41.1 °F -16.6 °F 7% 29.62 in 6.2 mi SW 11.5 mph - N/A   Partly Cloudy
12:50 AM 48.2 °F - 42.8 °F 82% 29.62 in 5.6 mi WSW 10.4 mph - N/A Rain Light Rain Showers
1:20 AM 48.2 °F - 42.8 °F 82% 29.62 in 6.2 mi SW 10.4 mph - N/A   Partly Cloudy
1:50 AM 48.2 °F - 42.8 °F 82% 29.62 in 6.2 mi SW 6.9 mph - N/A   Partly Cloudy
2:00 AM 47 °F - 44 °F 83% 29.65 in 19 mi SW 6.7 mph - -   Partly Cloudy
2:20 AM 46.4 °F 41.5 °F 42.8 °F 87% 29.62 in 6.2 mi SW 10.4 mph - N/A   Partly Cloudy
2:50 AM 46.4 °F 41.5 °F 42.8 °F 87% 29.62 in 6.2 mi SW 10.4 mph - N/A   Partly Cloudy
3:20 AM 46.4 °F 41.5 °F 41.0 °F 81% 29.65 in - SW 10.4 mph - N/A   Clear
3:50 AM 46.4 °F 41.5 °F 41.0 °F 81% 29.62 in - SW 10.4 mph - N/A   Clear
4:20 AM 44.6 °F 39.2 °F 41.0 °F 87% 29.65 in - SW 10.4 mph - N/A   Clear
4:50 AM 44.6 °F 38.8 °F 41.0 °F 87% 29.62 in - SW 11.5 mph - N/A   Clear
5:00 AM 45 °F - 41 °F 82% 29.65 in 19 mi SW 11.2 mph - -   Scattered Clouds
5:20 AM 44.6 °F 38.8 °F 41.0 °F 87% 29.62 in - SW 11.5 mph - N/A   Clear
5:50 AM 44.6 °F 39.2 °F 41.0 °F 87% 29.62 in - SW 10.4 mph - N/A   Clear
6:20 AM 44.6 °F 39.2 °F 41.0 °F 87% 29.65 in - SW 10.4 mph - N/A   Clear
6:50 AM 44.6 °F 39.2 °F 41.0 °F 87% 29.65 in - SW 10.4 mph - N/A   Clear
7:20 AM 44.6 °F 39.2 °F 41.0 °F 87% 29.65 in - SW 10.4 mph - N/A   Clear
7:50 AM 44.6 °F 38.8 °F 41.0 °F 87% 29.65 in - SW 11.5 mph - N/A   Clear
8:00 AM 45 °F - 42 °F 83% 29.66 in 25 mi SW 11.2 mph - -   Scattered Clouds
8:20 AM 46.4 °F 40.7 °F 42.8 °F 87% 29.65 in - SW 12.7 mph - N/A   Clear
8:50 AM 48.2 °F - 44.6 °F 87% 29.65 in - SSW 11.5 mph - N/A   Clear
9:20 AM 50.0 °F - 42.8 °F 76% 29.65 in 6.2 mi SW 13.8 mph - N/A   Partly Cloudy
9:50 AM 50.0 °F - 44.6 °F 82% 29.65 in 6.2 mi SW 13.8 mph - N/A   Partly Cloudy
10:20 AM 51.8 °F - 44.6 °F 76% 29.65 in 6.2 mi SW 12.7 mph - N/A   Partly Cloudy
10:50 AM 53.6 °F - 44.6 °F 72% 29.65 in 6.2 mi SW 17.3 mph - N/A   Partly Cloudy
11:00 AM 53 °F - 45 °F 65% 29.67 in 25 mi SW 17.9 mph - -   Scattered Clouds
11:20 AM 53.6 °F - 44.6 °F 72% 29.65 in 6.2 mi SW 16.1 mph - N/A   Partly Cloudy
11:50 AM 51.8 °F - 46.4 °F 82% 29.65 in 6.2 mi SW 19.6 mph - N/A Rain Rain Showers
12:20 PM 51.8 °F - 46.4 °F 82% 29.65 in 6.2 mi SW 11.5 mph - N/A   Partly Cloudy
12:50 PM 55.4 °F - 48.2 °F 77% 29.65 in 6.2 mi SW 12.7 mph - N/A   Partly Cloudy
1:20 PM 55.4 °F - 44.6 °F 67% 29.65 in 6.2 mi WSW 13.8 mph - N/A   Scattered Clouds
1:50 PM 55.4 °F - 44.6 °F 67% 29.65 in 6.2 mi SW 13.8 mph - N/A   Partly Cloudy
2:00 PM 55 °F - 44 °F 58% 29.66 in 19 mi SW 13.4 mph - -   Partly Cloudy
2:20 PM 55.4 °F - 42.8 °F 63% 29.65 in 6.2 mi WSW 13.8 mph - N/A   Partly Cloudy
2:50 PM 55.4 °F - 42.8 °F 63% 29.62 in 6.2 mi WSW 11.5 mph - N/A   Partly Cloudy
3:20 PM 57.2 °F - 42.8 °F 59% 29.62 in 6.2 mi WSW 10.4 mph - N/A   Partly Cloudy
3:50 PM 55.4 °F - 42.8 °F 63% 29.62 in 6.2 mi WSW 15.0 mph - N/A   Mostly Cloudy
4:20 PM 55.4 °F - 44.6 °F 67% 29.59 in 6.2 mi WSW 13.8 mph - N/A   Scattered Clouds
4:50 PM 53.6 °F - 46.4 °F 77% 29.59 in 5.6 mi WSW 9.2 mph - N/A Rain Light Rain
5:00 PM 53 °F - 46 °F 69% 29.61 in 6 mi WSW 8.9 mph - - Rain Light Rain
5:20 PM 51.8 °F - 48.2 °F 88% 29.59 in 5.6 mi SW 11.5 mph - N/A Rain Light Rain
5:50 PM 51.8 °F - 50.0 °F 94% 29.56 in 5.6 mi SSW 11.5 mph - N/A Rain Light Rain
6:20 PM 51.8 °F - 50.0 °F 94% 29.56 in 5.6 mi SSW 10.4 mph - N/A Rain Light Rain
6:50 PM 51.8 °F - 50.0 °F 94% 29.53 in 6.2 mi SSW 10.4 mph - N/A Rain Light Rain
7:20 PM 51.8 °F - 50.0 °F 94% 29.50 in 4.3 mi South 8.1 mph - N/A Rain Light Rain
7:50 PM 51.8 °F - 50.0 °F 94% 29.47 in 4.3 mi South 9.2 mph - N/A   Light Drizzle
8:00 PM 51 °F - 49 °F 91% 29.49 in 4 mi South 8.9 mph - - Rain Light Drizzle
8:20 PM 51.8 °F - 50.0 °F 94% 29.44 in 6.2 mi South 8.1 mph - N/A   Mostly Cloudy
8:50 PM 51.8 °F - 50.0 °F 94% 29.42 in - South 8.1 mph - N/A Rain Light Rain
9:20 PM 51.8 °F - 50.0 °F 94% 29.42 in 3.7 mi South 9.2 mph - N/A Rain Light Rain
9:50 PM 51.8 °F - 50.0 °F 94% 29.39 in 4.3 mi South 10.4 mph - N/A Rain Light Rain
10:20 PM 53.6 °F - 50.0 °F 88% 29.36 in 6.2 mi SSW 11.5 mph - N/A Rain Light Rain
10:50 PM 53.6 °F - 51.8 °F 94% 29.36 in 6.2 mi South 11.5 mph - N/A   Mostly Cloudy
11:00 PM 53 °F - 51 °F 92% 29.36 in 9 mi South 11.2 mph - - Rain Light Rain
11:20 PM 53.6 °F - 51.8 °F 94% 29.33 in 6.2 mi SSW 9.2 mph - N/A   Mostly Cloudy
11:50 PM 55.4 °F - 53.6 °F 94% 29.33 in 6.2 mi WSW 10.4 mph - N/A   Mostly Cloudy